Terminal Aerodrome Forecast
Issued by NWS Miami, FL

Home | Current Version | Previous Version | Text Only | Print | Product List | Glossary On
Versions: 1 2 3 4 5 6 7 8 9 10 11 12 13 14 15 16 17 18 19 20 21 22 23 24 25 26 27 28 29 30 31 32 33 34 35 36 37 38 39 40 41 42 43 44 45 46 47 48 49 50
000
FTUS42 KMFL 041507 AAB
TAFPBI
TAF AMD
KPBI 041507Z 0415/0512 11011KT P6SM VCTS SCT025CB BKN050
      TEMPO 0415/0416 4SM TSRA BKN025CB
     FM042100 11011KT P6SM SCT030 BKN150
     FM050200 13005KT P6SM FEW025 BKN200=

USA.gov is the U.S. government's official web portal to all federal, state and local government web resources and services.